This is the latest recevied weather packets stored in our database for station/object K4CRS-13. If no packets are shown the sender has not sent any weather packets the latest 10 day(s).
| Time | Temp. | Humidity | Pressure | Rain* | Wind** | Luminosity | Snow |
|---|---|---|---|---|---|---|---|
| 1777197457 | 13.89° C | 99% | 1045.9 hPa | 0 mm | - | 0 W/m² | - |
| 1777197155 | 13.89° C | 99% | 1045.8 hPa | 0 mm | - | 0 W/m² | - |
| 1777196850 | 13.89° C | 99% | 1045.9 hPa | 0 mm | - | 0 W/m² | - |
| 1777196546 | 13.89° C | 99% | 1046.1 hPa | 0 mm | - | 0 W/m² | - |
| 1777196243 | 13.89° C | 99% | 1046.2 hPa | 0 mm | - | 0 W/m² | - |
| 1777195941 | 13.89° C | 99% | 1046.1 hPa | 0 mm | - | 0 W/m² | - |
| 1777195640 | 13.89° C | 99% | 1046.3 hPa | 0 mm | - | 0 W/m² | - |
| 1777195336 | 13.33° C | 99% | 1046.2 hPa | 0 mm | - | 0 W/m² | - |
| 1777195033 | 13.33° C | 99% | 1046.2 hPa | 0 mm | - | 0 W/m² | - |
| 1777194729 | 13.89° C | 99% | 1046.2 hPa | 0 mm | - | 0 W/m² | - |
| 1777194425 | 13.89° C | 99% | 1046.3 hPa | 0 mm | - | 0 W/m² | - |
| 1777194122 | 13.89° C | 99% | 1046.4 hPa | 0 mm | - | 0 W/m² | - |
| 1777193817 | 12.78° C | 99% | 1046.2 hPa | 0 mm | - | 0 W/m² | - |
| 1777193516 | 12.78° C | 99% | 1046.4 hPa | 0 mm | - | 0 W/m² | - |
| 1777193211 | 12.78° C | 99% | 1046.5 hPa | 0 mm | - | 0 W/m² | - |
| 1777192906 | 13.89° C | 99% | 1046.3 hPa | 0 mm | - | 0 W/m² | - |
| 1777192603 | 13.89° C | 99% | 1046.2 hPa | 0 mm | - | 0 W/m² | - |
| 1777192300 | 13.89° C | 99% | 1046.2 hPa | 0 mm | - | 0 W/m² | - |
| 1777191997 | 13.89° C | 99% | 1046 hPa | 0 mm | - | 0 W/m² | - |
| 1777191693 | 12.78° C | 99% | 1045.9 hPa | 0 mm | - | 0 W/m² | - |
| 1777191389 | 13.89° C | 99% | 1045.9 hPa | 0 mm | - | 0 W/m² | - |
| 1777191086 | 14.44° C | 99% | 1045.7 hPa | 0 mm | - | 0 W/m² | - |
| 1777190783 | 13.89° C | 99% | 1045.7 hPa | 0 mm | - | 0 W/m² | - |
| 1777190480 | 13.89° C | 99% | 1045.9 hPa | 0 mm | - | 0 W/m² | - |
| 1777190175 | 13.33° C | 99% | 1045.6 hPa | 0 mm | - | 0 W/m² | - |
* Rain latest hour (hover to see other rain measurements)
** Current wind speed in m/s (hover to see current wind gust speed)